TimeCDT,TemperatureF,Dew PointF,Humidity,Sea Level PressureIn,VisibilityMPH,Wind Direction,Wind SpeedMPH,Gust SpeedMPH,PrecipitationIn,Events,Conditions,WindDirDegrees,DateUTC
12:58 AM,32.9,19.0,57,30.09,10.0,NNW,3.5,-,N/A,,Clear,340,2013-03-19 05:58:00
1:58 AM,29.8,19.6,66,30.11,10.0,NNW,6.9,-,N/A,,Mostly Cloudy,330,2013-03-19 06:58:00
2:58 AM,30.4,18.3,61,30.10,10.0,West,3.5,-,N/A,,Scattered Clouds,260,2013-03-19 07:58:00
3:58 AM,31.1,18.1,59,30.11,10.0,WNW,2.3,-,N/A,,Mostly Cloudy,290,2013-03-19 08:58:00
4:58 AM,30.4,20.5,67,30.12,10.0,SW,5.8,-,N/A,,Overcast,230,2013-03-19 09:58:00
5:58 AM,30.4,23.5,76,30.14,10.0,SW,5.8,-,N/A,,Overcast,220,2013-03-19 10:58:00
6:58 AM,31.1,21.6,68,30.16,10.0,West,2.3,-,N/A,,Scattered Clouds,270,2013-03-19 11:58:00
7:58 AM,31.8,21.4,65,30.19,10.0,West,4.6,-,N/A,,Mostly Cloudy,270,2013-03-19 12:58:00
8:58 AM,34.5,18.5,52,30.22,10.0,West,4.6,-,N/A,,Mostly Cloudy,280,2013-03-19 13:58:00
9:58 AM,36.1,14.9,42,30.24,10.0,NW,4.6,-,N/A,,Mostly Cloudy,310,2013-03-19 14:58:00
10:58 AM,37.2,14.5,40,30.25,10.0,WNW,4.6,-,N/A,,Overcast,300,2013-03-19 15:58:00
11:58 AM,37.9,12.9,36,30.26,10.0,WNW,4.6,-,N/A,,Overcast,300,2013-03-19 16:58:00
12:58 PM,39.4,14.0,36,30.26,10.0,North,3.5,-,N/A,,Mostly Cloudy,360,2013-03-19 17:58:00
1:58 PM,40.5,14.4,35,30.26,10.0,WSW,4.6,-,N/A,,Mostly Cloudy,250,2013-03-19 18:58:00
2:58 PM,42.1,18.1,38,30.25,10.0,WSW,9.2,-,N/A,,Mostly Cloudy,250,2013-03-19 19:58:00
3:58 PM,39.9,31.1,71,30.24,10.0,SW,11.5,-,N/A,,Mostly Cloudy,230,2013-03-19 20:58:00
4:58 PM,39.9,34.5,81,30.25,10.0,WSW,8.1,-,N/A,,Overcast,250,2013-03-19 21:58:00
5:58 PM,39.9,36.0,86,30.24,10.0,WSW,10.4,-,N/A,,Partly Cloudy,240,2013-03-19 22:58:00
6:58 PM,39.2,37.8,95,30.24,10.0,West,8.1,-,N/A,,Partly Cloudy,260,2013-03-19 23:58:00
7:58 PM,36.0,35.8,99,30.25,10.0,West,5.8,-,N/A,,Clear,270,2013-03-20 00:58:00
8:58 PM,35.6,35.6,100,30.25,10.0,WSW,5.8,-,N/A,,Partly Cloudy,250,2013-03-20 01:58:00
9:08 PM,35.6,35.6,100,30.23,10.0,WSW,5.8,-,N/A,,Mostly Cloudy,250,2013-03-20 02:08:00
9:18 PM,35.6,35.6,100,30.23,10.0,West,5.8,-,N/A,,Mostly Cloudy,260,2013-03-20 02:18:00
9:58 PM,36.9,36.9,100,30.26,10.0,West,5.8,-,N/A,,Mostly Cloudy,270,2013-03-20 02:58:00
10:48 PM,37.4,37.4,100,30.25,10.0,WNW,6.9,-,N/A,,Mostly Cloudy,290,2013-03-20 03:48:00
10:58 PM,36.1,36.1,100,30.27,10.0,WNW,4.6,-,N/A,,Scattered Clouds,290,2013-03-20 03:58:00
11:58 PM,33.3,33.3,100,30.26,10.0,SSW,4.6,-,N/A,,Clear,210,2013-03-20 04:58:00